Temperature
18 18 18 18 18 18 18 18 18 17 17 17 17 17 17 17 17 17 17 17 17 17 18 18 18 18 18 18 18 18 18 18 18 18 18 18 18 18 18 18 18 18 18
18 18 18 18 17 17 17 17 17 17 17 17 17 17 17 17 17 17 17 17 17 17 17 17 17 17 17 17 18 18 18 18 18 18 18 18 18 18 18 18 18 18 18
18 18 18 17 17 17 17 17 17 17 17 17 17 17 17 17 17 17 17 17 17 17 17 17 17 17 17 17 17 18 18 17 17 17 17 17 17 17 18 18 18 18 18
18 18 18 17 17 17 17 17 17 17 17 17 17 17 17 17 17 17 17 17 17 17 17 17 17 17 17 17 17 17 17 17 17 17 17 17 17 17 17 17 17 17 17
17 17 18 17 17 17 17 17 17 17 17 17 17 17 17 17 17 16 17 17 17 17 17 17 17 17 17 17 17 17 17 17 17 17 17 17 17 17 17 17 17 17 17
17 17 18 17 17 17 17 17 17 17 17 17 17 17 17 17 17 16 17 17 16 17 17 17 17 17 17 17 17 17 17 17 17 17 17 17 17 17 17 17 17 17 17
17 17 17 17 17 17 17 17 17 17 17 17 17 16 16 16 17 17 17 17 16 17 17 17 17 17 17 17 17 17 16 16 16 16 16 16 16 17 17 17 17 17 17
17 17 17 17 17 17 17 17 17 17 17 17 16 16 16 16 16 17 17 17 17 17 17 17 17 17 17 17 16 16 16 16 16 16 16 16 16 16 16 16 16 16 16
18 17 17 17 17 17 17 17 17 17 17 16 16 16 16 16 16 16 16 16 16 16 17 16 16 16 16 16 16 16 16 16 16 16 16 16 16 16 16 16 16 16 16
18 18 17 17 17 17 17 17 17 17 17 17 16 16 16 16 16 16 16 16 16 16 16 16 16 16 16 16 16 16 16 16 16 16 16 16 16 16 16 16 16 16 16
18 18 17 17 17 17 17 17 17 17 17 17 16 16 16 16 16 16 16 16 16 16 16 16 16 16 16 16 16 16 16 16 16 16 16 16 16 16 16 16 16 16 16
18 18 18 18 17 17 17 17 17 16 16 16 16 16 16 16 16 16 16 16 16 16 16 16 16 16 16 16 16 16 16 16 16 16 16 15 16 16 16 16 16 16 16
18 18 18 18 17 17 17 17 17 16 16 16 16 16 16 16 16 16 16 16 16 16 16 16 16 16 16 16 16 16 16 16 15 15 15 15 15 15 15 15 15 15 15
18 18 18 18 17 17 17 17 17 16 16 16 16 16 16 16 16 16 16 16 16 16 16 16 16 16 16 16 16 16 16 15 15 15 15 15 15 15 15 15 15 15 15
18 18 17 17 17 17 17 17 16 16 16 16 16 16 16 16 16 16 16 16 16 16 16 16 16 16 15 15 15 15 15 15 15 15 15 15 15 15 15 15 15 15 15
18 18 17 17 17 17 17 17 16 16 16 16 16 16 16 16 16 16 16 15 15 16 16 16 16 16 15 15 15 15 15 15 15 15 15 15 15 15 15 15 15 15 15
18 18 17 17 17 17 17 16 16 16 16 16 16 16 16 16 16 16 16 15 15 15 15 15 15 15 15 15 15 15 15 15 15 15 15 15 15 15 15 15 15 15 15
18 18 17 17 17 17 17 16 16 16 16 16 16 16 16 16 16 16 15 15 15 15 15 15 15 15 15 15 15 15 15 15 15 15 15 15 15 15 15 15 15 14 15
18 17 17 17 17 17 16 16 16 16 16 16 16 16 16 16 15 15 15 15 15 15 15 15 15 15 15 15 15 15 15 15 15 15 15 14 14 14 14 14 14 14 14
17 17 17 17 17 17 16 16 16 16 16 16 15 15 15 15 15 15 15 15 15 15 15 15 15 15 15 15 15 15 15 15 15 15 15 15 14 14 14 14 14 14 14
17 17 17 17 16 16 16 16 16 16 15 15 15 15 15 15 15 15 15 15 15 15 15 15 15 15 15 15 15 15 15 15 15 15 15 15 14 14 14 14 14 14 14
17 17 17 17 16 16 16 16 16 15 15 15 15 15 15 15 15 15 15 15 15 15 14 14 14 14 14 14 14 15 14 14 14 15 15 15 14 14 14 14 14 14 14
17 17 17 16 16 16 16 16 15 15 15 15 15 15 15 15 15 15 15 14 14 14 14 14 14 14 14 14 14 14 14 14 14 14 14 14 14 14 14 14 14 14 14
17 17 16 16 16 16 16 16 15 15 15 15 15 15 15 14 14 14 14 14 14 14 14 14 14 14 14 14 14 14 14 14 14 14 14 14 14 14 14 14 13 13 13
16 16 16 16 16 16 16 16 15 15 15 15 15 14 14 14 14 14 14 14 14 14 14 14 14 14 14 14 14 14 14 14 14 14 14 14 14 14 14 13 13 13 13
16 16 16 16 16 16 16 15 15 15 15 15 14 14 14 14 14 14 14 14 14 14 14 14 14 14 14 14 14 14 14 14 14 14 14 14 13 13 13 13 13 13 13
Wind_Speed
6 9 9 9 8 8 8 9 9 9 10 10 10 10 10 10 11 11 11 12 12 11 11 11 11 11 11 11 11 10 10 10 10 10 10 9 9 10 9 8 7 7 8
8 10 10 9 9 9 8 9 9 9 10 10 10 10 10 10 11 11 11 11 11 11 11 12 12 12 11 11 10 10 9 9 9 9 9 9 10 10 9 9 9 8 9
9 10 10 9 9 9 9 8 8 8 9 9 10 10 10 10 11 11 11 11 11 12 12 12 12 12 12 11 11 10 9 8 7 7 7 8 9 10 10 10 10 9 9
9 10 10 9 9 9 9 8 8 8 8 9 9 10 10 11 11 11 12 12 12 12 12 12 12 13 13 12 11 10 8 7 8 7 7 9 9 10 10 9 9 9 8
10 12 11 10 9 9 9 9 9 9 9 9 9 10 10 11 11 12 12 12 12 12 12 12 12 12 12 11 10 9 8 7 8 8 9 9 10 10 10 9 9 8 8
10 12 11 10 10 9 10 10 10 10 10 10 10 10 11 11 12 12 12 12 12 12 12 12 12 12 12 11 11 10 9 8 8 8 9 10 10 10 10 9 9 8 8
10 11 11 11 10 10 11 11 12 11 11 11 11 11 11 11 12 12 12 12 12 12 12 12 12 12 11 11 11 10 10 9 9 9 10 10 9 10 10 10 9 9 8
9 10 12 11 11 11 11 11 11 11 12 12 11 11 11 11 11 12 12 12 12 12 11 11 11 11 11 11 10 10 10 9 9 9 10 10 11 11 10 11 10 10 9
8 9 9 11 11 11 11 10 10 10 10 11 10 10 10 10 11 11 12 12 12 12 12 11 11 10 10 10 9 9 10 11 9 9 10 10 12 11 11 10 10 10 10
6 7 7 9 10 10 10 10 9 8 9 9 9 9 9 9 10 10 11 11 11 11 11 10 10 9 8 8 7 7 8 9 10 11 10 11 13 12 11 11 11 11 11
5 5 4 5 7 8 9 9 9 8 7 7 7 7 7 7 8 9 10 10 10 9 8 7 7 7 6 5 5 5 6 8 10 10 11 13 14 13 12 12 12 11 11
4 4 4 4 5 6 6 7 6 6 7 6 6 6 6 7 8 9 9 8 7 7 6 4 4 4 4 2 4 5 6 9 9 10 12 14 13 13 13 13 12 11 11
4 4 4 4 4 4 4 4 3 4 4 3 4 6 6 6 7 7 6 6 5 5 3 3 2 2 3 3 5 6 9 9 10 11 12 14 14 14 13 14 13 12 12
5 4 4 4 4 4 4 3 3 2 2 2 4 6 5 3 3 4 3 3 4 3 3 3 2 4 4 6 7 8 9 9 9 11 12 14 14 14 14 14 14 13 12
6 5 4 3 3 3 4 2 3 2 2 3 3 4 5 2 2 3 3 3 3 3 2 2 3 4 5 6 7 7 7 8 9 10 10 13 13 14 13 13 13 13 13
5 5 4 4 3 3 3 2 2 3 3 3 2 3 5 4 3 3 3 2 2 2 2 3 4 4 4 5 5 6 5 6 8 9 10 10 11 12 12 12 13 13 12
5 5 4 4 3 3 3 3 3 2 3 2 1 1 4 5 4 3 3 2 2 2 4 4 4 4 4 4 4 4 4 4 5 6 8 8 9 10 11 11 12 12 12
4 5 4 3 4 4 3 2 2 3 3 2 2 2 3 5 5 3 2 2 3 3 3 3 2 3 4 3 3 2 3 3 4 4 5 7 7 8 9 10 10 11 11
4 4 3 3 3 3 2 2 2 3 2 2 2 2 3 3 5 4 2 1 4 3 2 2 3 3 3 2 1 2 2 2 2 3 3 4 6 7 8 8 8 8 9
3 3 3 3 3 3 2 2 2 2 2 2 2 2 3 3 4 4 1 2 4 3 2 2 2 2 2 1 1 2 1 1 2 2 2 3 4 6 6 6 6 7 7
3 3 3 3 3 2 2 2 2 1 1 2 1 2 3 3 4 3 2 2 3 2 2 2 2 2 1 1 2 1 1 2 2 2 1 2 2 4 4 4 5 6 6
3 3 3 3 3 3 2 2 1 2 1 2 2 2 1 2 3 2 2 2 2 2 2 2 2 1 1 1 1 1 0 1 2 1 2 1 2 2 2 3 4 5 6
3 2 2 3 3 3 2 2 2 2 1 2 2 1 1 2 2 1 2 2 1 2 1 1 1 1 0 2 1 1 1 0 1 1 1 2 2 1 1 2 4 5 6
3 2 2 2 3 3 3 3 2 1 1 1 2 1 1 2 2 1 1 1 1 1 1 1 1 1 1 1 2 1 0 1 1 0 1 1 1 2 1 2 3 4 6
3 2 1 2 3 3 2 3 2 2 2 1 2 2 2 2 2 2 1 1 1 1 2 1 1 1 1 0 1 1 1 1 1 1 1 1 1 0 1 1 2 3 5
4 3 2 2 2 2 2 2 3 3 2 2 2 2 1 1 1 1 1 1 1 1 2 1 1 1 1 1 1 0 0 0 1 0 1 0 0 1 0 1 2 3 4
Wind_Direction
88 91 81 75 74 70 67 63 65 67 67 67 66 65 64 62 60 57 58 60 60 58 57 56 56 59 62 65 67 68 71 77 81 89 91 91 87 83 80 79 82 78 81
98 96 86 79 75 73 69 66 68 72 71 71 70 69 68 66 64 61 60 61 62 60 60 61 62 62 63 64 66 67 71 78 84 87 91 91 87 84 80 75 73 78 76
100 101 91 81 76 74 71 69 68 75 76 76 75 72 72 72 70 66 63 65 64 64 64 63 65 64 64 63 64 66 67 68 76 81 89 98 90 81 79 74 74 76 77
100 98 92 89 81 76 72 67 71 81 84 84 82 77 76 75 72 69 66 67 66 66 65 65 67 65 64 62 62 61 61 61 61 62 73 77 81 81 77 72 72 73 76
96 96 96 94 86 80 73 70 77 87 90 90 89 84 81 79 75 73 70 68 67 68 68 68 69 67 63 62 61 60 56 51 54 67 72 75 77 80 79 75 72 70 70
101 100 102 99 91 84 75 73 81 87 87 90 93 88 83 81 77 74 72 70 68 68 69 69 69 67 64 63 61 57 52 46 57 69 74 78 78 78 76 73 70 68 66
105 108 108 104 98 92 84 77 80 82 86 93 95 92 87 83 79 76 75 72 71 70 70 70 69 69 67 63 58 53 50 48 64 68 70 73 74 77 75 73 70 67 66
107 112 116 114 108 101 94 85 81 83 86 93 95 92 90 88 84 82 80 77 74 73 73 73 72 72 70 66 58 49 42 43 64 74 74 69 74 76 74 72 69 66 67
114 118 128 132 126 116 108 100 94 94 93 96 99 98 98 95 92 88 85 82 78 77 78 78 77 75 74 70 62 52 42 43 53 62 70 71 76 76 73 71 69 67 67
121 130 136 140 140 136 130 121 115 110 108 110 114 115 111 106 101 97 92 88 86 83 82 82 82 80 77 72 63 51 40 48 61 61 64 72 74 74 72 70 70 72 70
104 106 119 128 132 134 134 131 137 136 135 134 138 140 139 129 118 105 97 97 96 94 92 90 90 90 87 81 68 56 51 67 71 67 64 71 71 70 68 67 70 75 73
107 110 100 96 91 103 107 127 144 145 150 156 148 144 136 120 111 109 113 115 115 114 113 114 115 110 109 97 83 68 68 72 71 71 67 71 70 68 67 65 65 73 73
111 96 104 102 94 93 99 112 120 123 133 138 124 116 106 108 117 122 133 137 139 144 142 122 126 99 102 95 85 81 73 73 70 72 69 71 71 68 67 65 63 71 73
108 98 97 96 95 96 100 102 101 101 110 92 96 99 107 109 110 116 116 131 124 106 86 91 84 68 55 63 75 77 78 81 80 81 74 72 72 69 69 67 64 69 72
123 115 93 91 93 97 94 85 92 83 99 93 89 102 102 103 97 109 103 93 95 96 102 85 72 65 60 51 60 64 70 83 87 86 82 76 73 72 71 71 69 73 73
120 126 117 103 88 92 96 93 86 82 89 87 76 103 107 106 97 98 96 89 96 105 93 86 81 73 72 69 59 63 61 81 95 98 100 87 77 74 72 73 73 73 77
126 119 120 124 113 100 92 86 85 87 86 80 59 61 101 109 106 91 101 96 97 77 76 66 63 76 80 75 66 64 66 60 90 104 109 106 96 84 80 78 76 74 76
108 118 125 123 111 96 91 91 93 88 77 69 61 23 82 96 98 83 81 93 92 72 68 73 55 61 69 69 72 60 71 54 54 74 102 110 112 105 95 88 85 79 77
98 110 126 116 110 116 116 100 79 91 92 82 71 41 42 77 96 92 71 83 83 77 61 59 68 71 78 72 99 89 78 71 52 53 70 94 105 113 115 106 98 91 87
110 113 102 113 110 114 95 85 80 74 82 74 65 58 32 41 80 86 74 76 77 65 50 50 65 63 87 97 76 90 88 105 88 56 57 73 87 101 109 121 123 111 102
121 108 104 115 101 96 97 104 103 88 93 87 70 58 35 29 61 92 85 77 83 83 70 65 72 55 38 47 58 51 39 86 105 98 74 71 82 91 101 110 121 130 118
142 129 134 115 111 100 84 99 121 120 117 108 89 69 65 51 49 73 89 83 85 88 75 62 79 60 1 29 84 82 38 12 359 120 116 102 87 87 83 100 107 110 119
130 117 112 122 119 124 127 95 77 79 87 100 110 100 64 84 83 81 101 107 109 112 126 134 95 92 354 331 17 81 102 219 314 2 138 118 113 83 58 68 86 95 106
141 128 145 136 127 126 124 118 125 127 139 142 137 142 137 104 105 100 122 135 141 127 127 162 137 130 130 308 332 4 20 118 133 291 322 83 125 110 88 73 79 86 95
146 144 158 121 111 117 132 136 155 142 138 127 129 145 152 132 133 128 146 153 161 160 159 164 137 123 128 217 303 329 339 331 264 145 231 295 338 111 126 109 103 93 104
140 139 135 130 121 126 125 143 157 151 149 148 160 164 159 144 158 159 162 161 180 164 159 165 148 135 153 248 286 293 137 340 296 96 167 212 321 294 130 104 101 115 116
Height
1507 1506 1506 1505 1505 1505 1505 1504 1504 1504 1504 1505 1505 1505 1506 1506 1506 1506 1506 1506 1506 1506 1506 1506 1506 1506 1506 1506 1507 1507 1508 1508 1509 1510 1511 1511 1512 1513 1514 1515 1516 1516 1517
1507 1506 1506 1506 1506 1505 1505 1505 1504 1504 1505 1505 1506 1506 1506 1507 1507 1507 1507 1507 1507 1507 1507 1507 1507 1507 1507 1508 1508 1509 1509 1510 1510 1511 1512 1513 1514 1514 1515 1516 1517 1517 1517
1507 1507 1507 1506 1506 1506 1505 1505 1504 1504 1505 1505 1506 1507 1507 1508 1508 1509 1508 1508 1508 1508 1508 1508 1508 1508 1508 1509 1509 1510 1511 1511 1512 1513 1513 1514 1515 1516 1516 1517 1517 1517 1518
1508 1507 1507 1507 1507 1506 1505 1503 1502 1502 1503 1505 1506 1507 1508 1509 1509 1510 1510 1510 1510 1510 1509 1509 1509 1509 1510 1510 1510 1511 1512 1513 1513 1514 1515 1515 1516 1516 1517 1517 1518 1518 1518
1509 1508 1508 1508 1508 1507 1504 1501 1499 1499 1502 1504 1506 1508 1509 1510 1510 1511 1511 1511 1511 1511 1511 1511 1511 1511 1511 1511 1512 1512 1513 1514 1514 1515 1516 1516 1517 1517 1517 1518 1518 1518 1518
1510 1509 1509 1509 1508 1507 1505 1502 1498 1498 1500 1502 1505 1508 1509 1510 1511 1512 1512 1512 1512 1512 1512 1512 1512 1513 1513 1513 1513 1514 1514 1515 1516 1516 1516 1517 1517 1518 1518 1518 1519 1519 1519
1511 1511 1511 1510 1510 1509 1507 1505 1503 1501 1500 1502 1505 1509 1511 1512 1512 1513 1514 1514 1514 1514 1513 1514 1514 1514 1514 1515 1515 1515 1516 1516 1517 1517 1517 1518 1518 1518 1519 1519 1519 1519 1519
1512 1512 1512 1512 1512 1511 1510 1509 1507 1506 1505 1506 1508 1511 1512 1513 1514 1515 1515 1515 1515 1515 1515 1515 1515 1516 1516 1516 1517 1517 1517 1518 1518 1518 1518 1518 1519 1519 1519 1519 1519 1519 1519
1513 1513 1514 1514 1513 1513 1513 1512 1511 1511 1510 1511 1512 1513 1514 1515 1516 1516 1517 1517 1517 1517 1517 1517 1517 1517 1518 1518 1519 1519 1519 1519 1519 1519 1519 1519 1520 1520 1520 1520 1520 1519 1519
1515 1515 1515 1515 1515 1515 1515 1515 1514 1514 1514 1515 1515 1516 1516 1517 1518 1518 1519 1519 1519 1519 1519 1519 1519 1520 1520 1520 1521 1521 1521 1521 1521 1521 1521 1521 1521 1521 1521 1520 1520 1520 1519
1516 1517 1517 1517 1518 1518 1517 1517 1517 1517 1517 1517 1518 1518 1519 1519 1520 1520 1521 1521 1521 1521 1521 1521 1522 1522 1522 1523 1523 1523 1523 1523 1523 1522 1522 1522 1522 1522 1521 1521 1521 1521 1520
1517 1518 1518 1519 1519 1519 1519 1519 1519 1519 1519 1519 1520 1520 1521 1522 1522 1523 1523 1523 1523 1523 1524 1524 1524 1524 1524 1525 1525 1525 1525 1525 1524 1524 1524 1524 1524 1523 1523 1523 1522 1522 1521
1518 1518 1519 1520 1520 1520 1520 1520 1520 1521 1521 1522 1522 1523 1523 1523 1524 1524 1524 1525 1525 1525 1526 1526 1526 1526 1527 1527 1527 1527 1527 1526 1526 1526 1526 1526 1525 1525 1525 1524 1523 1523 1522
1518 1519 1520 1520 1521 1521 1521 1521 1522 1522 1523 1523 1524 1524 1524 1525 1525 1526 1526 1526 1527 1527 1527 1528 1528 1528 1528 1529 1529 1529 1529 1528 1528 1527 1527 1527 1527 1526 1526 1525 1524 1524 1524
1518 1519 1520 1521 1521 1521 1521 1522 1522 1523 1523 1524 1524 1525 1525 1526 1527 1527 1527 1528 1528 1528 1529 1529 1530 1530 1530 1530 1530 1530 1530 1530 1530 1529 1529 1529 1528 1528 1527 1527 1526 1525 1525
1518 1519 1520 1521 1521 1522 1522 1522 1523 1523 1524 1524 1525 1525 1526 1527 1527 1528 1528 1529 1529 1529 1530 1530 1531 1531 1531 1531 1531 1532 1532 1532 1531 1531 1531 1531 1530 1529 1529 1528 1528 1527 1526
1518 1519 1520 1521 1521 1522 1522 1523 1523 1524 1524 1525 1525 1526 1527 1527 1528 1528 1529 1529 1530 1531 1531 1531 1532 1532 1532 1532 1532 1533 1533 1533 1533 1533 1532 1532 1532 1531 1531 1530 1530 1529 1528
1518 1519 1520 1521 1521 1522 1522 1523 1523 1524 1524 1525 1525 1526 1527 1527 1528 1528 1529 1530 1530 1531 1531 1532 1532 1533 1533 1533 1533 1534 1534 1534 1534 1534 1534 1534 1533 1533 1532 1532 1532 1531 1530
1518 1519 1519 1520 1521 1521 1522 1522 1523 1524 1524 1525 1525 1526 1527 1527 1528 1528 1529 1530 1530 1531 1531 1532 1532 1533 1533 1533 1534 1534 1534 1535 1535 1535 1535 1535 1534 1534 1533 1533 1533 1533 1532
1517 1518 1519 1519 1520 1521 1522 1522 1523 1524 1524 1524 1525 1525 1526 1527 1527 1528 1528 1529 1530 1530 1531 1532 1532 1532 1533 1534 1534 1534 1535 1535 1535 1535 1535 1536 1536 1535 1535 1534 1534 1534 1533
1517 1517 1518 1518 1519 1520 1521 1521 1522 1523 1523 1524 1524 1525 1525 1526 1527 1527 1528 1528 1529 1530 1530 1531 1532 1532 1533 1533 1534 1534 1535 1535 1535 1535 1536 1536 1536 1536 1535 1535 1535 1534 1534
1516 1517 1518 1518 1519 1520 1520 1520 1522 1522 1523 1523 1524 1524 1525 1525 1526 1526 1527 1528 1528 1529 1529 1530 1531 1532 1533 1533 1534 1534 1535 1536 1535 1535 1535 1535 1535 1536 1536 1536 1535 1535 1534
1515 1516 1517 1518 1518 1518 1519 1520 1521 1521 1522 1522 1523 1524 1524 1524 1525 1526 1526 1527 1527 1528 1529 1530 1530 1531 1532 1533 1533 1534 1534 1534 1535 1535 1535 1535 1535 1535 1536 1536 1535 1535 1535
1514 1516 1516 1517 1517 1518 1519 1519 1520 1520 1521 1522 1522 1523 1523 1524 1524 1524 1525 1526 1527 1527 1528 1529 1529 1530 1531 1531 1532 1533 1534 1534 1534 1534 1535 1535 1535 1535 1535 1535 1535 1535 1535
1513 1514 1515 1516 1517 1517 1518 1518 1519 1519 1520 1521 1521 1522 1522 1523 1523 1524 1524 1524 1525 1526 1526 1527 1528 1529 1530 1531 1531 1532 1532 1532 1533 1533 1533 1534 1534 1534 1534 1534 1534 1534 1534
1512 1513 1514 1515 1516 1516 1516 1517 1517 1518 1519 1519 1520 1520 1521 1521 1522 1522 1523 1523 1524 1524 1525 1526 1527 1528 1529 1529 1530 1530 1531 1531 1531 1532 1532 1532 1532 1533 1533 1533 1533 1533 1533